Погода в Калугине

Россия / Тамбовская область     52°24′25″N   42°17′24″E
темп.,
°C
ветер,
м/с
пор.,
м/с
влажн.,
%
обл.,
%
осадки,
мм/ч
давл.,
гПа
погр.,
м
21 апреля, ср
ср2100:00+8юв91796100 15.1 10051008
03:00+9ююв7149343 17.0 1005507
06:00+9ююв81592100 0.4 1006675
09:00+10ю61188100 0.8 1008913
12:00+10ю81288100 1.1 10081416
15:00+7зюз81292100 1.8 1012671
18:00+8юз4981100 0.1 10141001
21:00+7ю378998 0.1 1017232
22 апреля, чт
чт2200:00+6ююв389551 0.0 1017167
03:00+5ююз411935 0.1 1018234
06:00+5юз49935 0.0 1019261
09:00+9зюз57705 0.0 1020643
12:00+13зюз575754 0.0 10211654
15:00+13зюз4651100 0.1 10211926
18:00+12ююз226411 0.0 102163
21:00+9ю226681 0.0 102215
23 апреля, пт
пт2300:00+10ю2262100 0.0 102229
03:00+8ююв336976 0.0 102228
06:00+8ююв347644 0.0 102264
09:00+12ююв356496 0.0 1022318
12:00+16ю3542100 0.1 10202435
15:00+15ю444495 0.1 10191803
18:00+13ююв4768100 0.3 1018330
21:00+10ююв498445 0.6 1017307
24 апреля, сб
сб2400:00+8ююв38915 0.0 1016176
03:00+7ююв489339 0.0 1014157
06:00+8ююв498873 0.1 1012233
09:00+12ююз5873100 1.2 1011595
12:00+12ююз81164100 1.4 10091546
15:00+4зсз5895100 5.3 1011528
18:00+7зюз3677100 0.3 1011795
21:00+6зюз5884100 1.1 1012618
25 апреля, вс
вс2500:00+4зюз488688 0.4 1012246
03:00+3зюз368834 0.5 1013118
06:00+3зюз38855 0.0 1014208
09:00+7з68649 0.1 10141150
12:00+9зюз81048100 0.4 10152278
15:00+9зюз71247100 0.4 10152655
18:00+7з6105740 0.1 10161023
21:00+4юз387715 0.1 1017205